Weather in Verkhnia Orilka

Ukraine / Kharkiv Region     49°17′52″N   36°03′31″E
temp.,
°C
wind,
m/s
gust,
m/s
humid.,
%
clouds,
%
prec.,
mm/h
press.,
hPa
HPBL,
m
23 october, sat
sat2300:00+11w376414 0.0 1014120
03:00+10sw116794 0.0 101410
06:00+9sw3670100 0.0 101493
09:00+11wsw3659100 0.0 1015189
12:00+15w5944100 0.0 1015766
15:00+16w693799 0.0 10151636
18:00+13wnw5104015 0.0 1016429
21:00+8nw385611 0.0 1019158
24 october, sun
sun2400:00+6nw36630 0.0 102098
03:00+4wnw336637 0.0 102151
06:00+4wnw3468100 0.0 102164
09:00+5wnw3561100 0.0 1022216
12:00+10wnw564781 0.0 10221645
15:00+10wnw673793 0.0 10202052
18:00+7wnw595497 0.0 1022446
21:00+5nnw71062100 0.1 10241398
25 october, mon
mon2500:00+4nw6106683 0.0 1025810
03:00+2nnw511765 0.0 1026478
06:000nnw511815 0.0 1028380
09:00+1nnw59735 0.0 1030482
12:00+5n57410 0.0 10311112
15:00+7n56320 0.0 10311330
18:00+3n35440 0.0 103275
21:00+2n33500 0.0 103335
26 october, tue
tue2600:00+1ne11540 0.0 103410
03:000ene11570 0.0 103510
06:00−1sse11590 0.0 103510
09:00+2sse12485 0.0 1035117
12:00+7s33315 0.0 1034669
15:00+9ssw33245 0.0 1032867
18:00+5s22310 0.0 103113
21:00+3s33353 0.0 103125
27 october, wed
wed2700:00+2s33380 0.0 103136
03:00+1s34410 0.0 103055
06:000s344530 0.0 102951
09:00+2ssw243856 0.0 1029154
12:00+8s453071 0.0 1027549
15:00+10ssw3425100 0.0 1025862
18:00+7ssw2234100 0.0 102417
21:00+6wsw3337100 0.0 102437